Regional Weather Roundup
Issued by NWS

Home | Current Version | Previous Version | Text Only | Print | Product List | Glossary Off
Versions: 1 2 3 4 5 6 7 8 9 10 11 12 13 14 15 16 17 18 19 20 21 22 23 24 25 26 27 28 29 30 31 32 33 34 35 36 37 38 39 40 41 42 43 44 45 46 47 48 49 50

000
ASUS43 KBIS 271602
RWRND

NORTH DAKOTA REGIONAL WEATHER ROUNDUP
NATIONAL WEATHER SERVICE BISMARCK ND
1100 AM CDT SUN MAY 27 2018

NOTE: "FAIR" INDICATES FEW OR NO CLOUDS BELOW 12,000 FEET WITH NO
SIGNIFICANT WEATHER AND/OR OBSTRUCTIONS TO VISIBILITY.


NDZ001>003-009>011-017-271700-
NORTHWEST NORTH DAKOTA

CITY           SKY/WX    TMP DP  RH WIND       PRES   REMARKS
WILLISTON      PTSUNNY   73  58  59 N7        29.90S
MINOT          CLOUDY    75  63  66 E10       29.85S
MINOT AFB      CLOUDY    74  62  66 E10       29.84S
$$

NDZ018>021-031>035-040>046-271700-
SOUTHWEST NORTH DAKOTA

CITY           SKY/WX    TMP DP  RH WIND       PRES   REMARKS
BISMARCK       PTSUNNY   73  60  63 E8        29.80R
DICKINSON      CLOUDY    65  57  75 N12       29.90R
GARRISON         N/A     68  60  75 E9        29.85S
HETTINGER ARPT CLOUDY    69  58  67 NW15      29.89R
$$

NDZ004>008-012>016-024-026-027-054-271700-
NORTHEAST NORTH DAKOTA

CITY           SKY/WX    TMP DP  RH WIND       PRES   REMARKS
GRAND FORKS    PTSUNNY   71  64  78 NE7       29.78S
GRND FRKS AFB  PTSUNNY   71  65  82 E7        29.79F
DEVILS LAKE    FAIR      69  63  81 N15       29.86S
$$

NDZ022-023-025-028>030-036>039-047>053-271700-
SOUTHEAST NORTH DAKOTA

CITY           SKY/WX    TMP DP  RH WIND       PRES   REMARKS
FARGO          FAIR      71  60  68 SE20G30   29.74F
JAMESTOWN      CLOUDY    67  60  78 SE21G38   29.72F
$$





USA.gov is the U.S. government's official web portal to all federal, state and local government web resources and services.